Norwood, MA

1:03 AM EDT on March 27, 2017 (GMT -0400)
Norwood Memorial

Weather History for KOWD - December, 2013

Change the Weather History Date:

Sunday, December 1, 2013

  Actual Average Record
Temperature  
Mean Temperature 38 °F -  
Max Temperature 46 °F 44 °F 72 °F (2001)
Min Temperature 30 °F 25 °F 17 °F (2007)
Degree Days  
Heating Degree Days 27    
Moisture  
Dew Point 37 °F    
Average Humidity 92    
Maximum Humidity 100    
Minimum Humidity 73    
Precipitation  
Precipitation 0.23 in - - ()
Sea Level Pressure  
Sea Level Pressure 30.14 in    
Wind  
Wind Speed 2 mph (NW)    
Max Wind Speed 7 mph    
Max Gust Speed -    
Visibility 5 miles    
Events Fog , Rain    
Averages and records for this station are not official NWS values.
T = Trace of Precipitation, MM = Missing Value Source: NWS Daily Summary

Daily Weather History Graph

Daily Weather History Graph

Search for Another Location

Airport or City:

Trip Planner

Search our weather history database for the weather conditions in past years. The results will help you decide how hot, cold, wet, or windy it might be!

Date:

Astronomy

Dec. 01, 2013 Rise Set
Actual Time 6:53 AM EST 4:13 PM EST
Civil Twilight 6:22 AM EST 4:44 PM EST
Nautical Twilight 5:47 AM EST 5:19 PM EST
Astronomical Twilight 5:14 AM EST 5:53 PM EST
Moon 5:07 AM EST (12/1) 3:22 PM EST (12/1)
Length of Visible Light 10h 22m
Length of Day
9h 19m
Waning Crescent, 2% of the Moon is Illuminated
Dec 1
Waning Crescent
Dec 2
New
Dec 9
First Quarter
Dec 17
Full
Dec 25
Last Quarter

Hourly Weather History & Observations

Time (EST) Temp. Windchill Dew Point Humidity Pressure Visibility Wind Dir Wind Speed Gust Speed Precip Events Conditions
12:53 AM 30.9 °F - 24.1 °F 76% 30.41 in 10.0 mi Calm Calm - N/A   Overcast
1:53 AM 34.0 °F 31.0 °F 26.1 °F 73% 30.39 in 10.0 mi SSW 3.5 mph - N/A   Overcast
2:53 AM 34.0 °F - 27.0 °F 75% 30.36 in 10.0 mi Calm Calm - N/A   Overcast
3:53 AM 35.1 °F 32.2 °F 28.0 °F 76% 30.33 in 10.0 mi SSW 3.5 mph - N/A   Overcast
4:53 AM 35.1 °F 31.0 °F 28.9 °F 78% 30.30 in 10.0 mi South 4.6 mph - N/A   Overcast
5:53 AM 36.0 °F - 30.0 °F 79% 30.29 in 10.0 mi Calm Calm - N/A   Overcast
6:53 AM 34.0 °F - 32.0 °F 92% 30.28 in 10.0 mi Calm Calm - N/A   Overcast
7:02 AM 35.1 °F - 32.0 °F 89% 30.27 in 10.0 mi Calm Calm - N/A   Overcast
7:23 AM 35.1 °F - 33.1 °F 92% 30.26 in 10.0 mi Calm Calm - N/A   Overcast
7:53 AM 36.0 °F - 32.0 °F 86% 30.26 in 10.0 mi Calm Calm - N/A   Overcast
8:40 AM 37.9 °F - 33.1 °F 83% 30.26 in 10.0 mi Calm Calm - N/A   Overcast
8:53 AM 37.9 °F - 34.0 °F 86% 30.26 in 9.0 mi Calm Calm - N/A   Overcast
9:53 AM 37.9 °F 35.5 °F 36.0 °F 93% 30.24 in 9.0 mi East 3.5 mph - N/A   Overcast
10:53 AM 39.9 °F 37.8 °F 37.0 °F 89% 30.22 in 7.0 mi NNW 3.5 mph - 0.00 in   Overcast
11:26 AM 41.0 °F - 39.0 °F 93% 30.19 in 3.0 mi Calm Calm - 0.00 in   Overcast
11:34 AM 39.9 °F 37.8 °F 39.0 °F 97% 30.19 in 5.0 mi WNW 3.5 mph - 0.00 in   Overcast
11:53 AM 41.0 °F - 39.0 °F 93% 30.18 in 10.0 mi Calm Calm - 0.00 in   Overcast
12:20 PM 43.0 °F - 41.0 °F 93% 30.16 in 10.0 mi Calm Calm - N/A   Overcast
12:53 PM 44.1 °F - 42.1 °F 93% 30.14 in 4.0 mi Calm Calm - N/A   Overcast
1:09 PM 45.0 °F - 42.1 °F 90% 30.13 in 10.0 mi Calm Calm - N/A   Overcast
1:53 PM 46.0 °F - 43.0 °F 89% 30.12 in 9.0 mi Calm Calm - N/A   Overcast
2:09 PM 46.9 °F - 43.0 °F 86% 30.11 in 10.0 mi Calm Calm - N/A   Overcast
2:26 PM 46.9 °F - 43.0 °F 86% 30.10 in 10.0 mi Calm Calm - N/A   Overcast
2:53 PM 45.0 °F 43.5 °F 43.0 °F 93% 30.10 in 4.0 mi NNW 3.5 mph - 0.01 in   Overcast
3:01 PM 45.0 °F - 43.0 °F 93% 30.09 in 2.5 mi Calm Calm - 0.00 in Rain Light Rain
3:11 PM 44.1 °F 41.5 °F 43.0 °F 96% 30.09 in 1.5 mi NNW 4.6 mph - 0.02 in Rain Light Rain
3:19 PM 44.1 °F 40.8 °F 42.1 °F 93% 30.09 in 2.0 mi NW 5.8 mph - 0.02 in Rain Light Rain
3:28 PM 43.0 °F 41.3 °F 42.1 °F 97% 30.09 in 1.2 mi NNW 3.5 mph - 0.05 in Rain Rain
3:46 PM 43.0 °F 40.3 °F 42.1 °F 97% 30.08 in 2.0 mi NNW 4.6 mph - 0.11 in Rain Light Rain
3:53 PM 42.1 °F 37.7 °F 41.0 °F 96% 30.08 in 2.0 mi NNW 6.9 mph - 0.12 in Rain Light Rain
4:00 PM 42.1 °F 39.2 °F 41.0 °F 96% 30.08 in 1.5 mi North 4.6 mph - 0.00 in Rain Light Rain
4:16 PM 41.0 °F 39.0 °F 39.9 °F 96% 30.07 in 2.0 mi North 3.5 mph - 0.03 in Rain Light Rain
4:27 PM 41.0 °F 38.0 °F 39.9 °F 96% 30.07 in 2.0 mi NNW 4.6 mph - 0.05 in Rain Light Rain
4:36 PM 39.9 °F 36.7 °F 39.9 °F 100% 30.07 in 2.5 mi WNW 4.6 mph - 0.05 in Rain Light Rain
4:38 PM 39.9 °F 35.1 °F 39.0 °F 97% 30.07 in 3.0 mi NW 6.9 mph - 0.05 in Rain Light Rain
4:53 PM 39.0 °F 34.8 °F 37.9 °F 96% 30.08 in 4.0 mi NW 5.8 mph - 0.05 in   Overcast
5:19 PM 37.9 °F 34.4 °F 37.0 °F 97% 30.07 in 2.0 mi NW 4.6 mph - 0.01 in Rain Light Rain
5:32 PM 37.9 °F 34.4 °F 37.0 °F 97% 30.06 in 3.0 mi NNW 4.6 mph - 0.02 in Rain Light Rain
5:53 PM 37.9 °F 34.4 °F 37.0 °F 97% 30.07 in 4.0 mi NW 4.6 mph - 0.02 in Rain Light Rain
6:38 PM 37.9 °F - 37.0 °F 97% 30.06 in 2.5 mi Calm Calm - 0.02 in Rain Light Rain
6:53 PM 37.9 °F 35.5 °F 37.0 °F 97% 30.06 in 4.0 mi WNW 3.5 mph - 0.02 in   Overcast
7:38 PM 37.0 °F 33.3 °F 37.0 °F 100% 30.05 in 5.0 mi NW 4.6 mph - 0.01 in   Overcast
7:53 PM 37.0 °F 33.3 °F 36.0 °F 96% 30.06 in 6.0 mi WNW 4.6 mph - 0.01 in   Overcast
8:16 PM 37.0 °F 33.3 °F 36.0 °F 96% 30.05 in 4.0 mi NW 4.6 mph - N/A   Overcast
8:37 PM 37.0 °F 34.5 °F 36.0 °F 96% 30.05 in 2.5 mi NW 3.5 mph - N/A   Overcast
8:53 PM 37.0 °F - 36.0 °F 96% 30.05 in 2.5 mi Calm Calm - N/A   Overcast
9:15 PM 37.0 °F - 36.0 °F 96% 30.04 in 3.0 mi Calm Calm - N/A   Overcast
9:35 PM 37.0 °F - 36.0 °F 96% 30.03 in 2.5 mi Calm Calm - N/A   Overcast
9:53 PM 37.0 °F - 36.0 °F 96% 30.03 in 2.0 mi Calm Calm - N/A   Overcast
10:07 PM 37.0 °F 34.5 °F 36.0 °F 96% 30.02 in 1.5 mi North 3.5 mph - N/A   Overcast
10:26 PM 37.0 °F 32.4 °F 36.0 °F 96% 30.03 in 1.0 mi NW 5.8 mph - N/A   Overcast
10:53 PM 37.0 °F 34.5 °F 36.0 °F 96% 30.03 in 0.8 mi Variable 3.5 mph - N/A   Overcast
11:19 PM 36.0 °F - 36.0 °F 100% 30.02 in 0.8 mi Calm Calm - N/A   Mist
11:53 PM 37.0 °F - 36.0 °F 96% 30.01 in 0.5 mi Calm Calm - N/A Fog Fog